Location: Banios
(43.0451°N, 0.2335°E)
Time: 20:46:51
(UTC+00:00)

CENTAUR R/B - Visible Passes

Search period start: 05 May 2021 00:00
Search period end: 15 May 2021 00:00
Orbit: 742 x 1446 km, 63.4° (Epoch: 18 April)

Date Brightness Start Highest point End Pass type
(mag) Time Alt. Az. Time Alt. Az. Time Alt. Az.
06 May 5.3 04:13:13 10° ESE 04:14:29 11° E 04:15:49 10° E visible
09 May 4.9 03:37:33 10° SE 03:40:02 13° ESE 03:42:40 10° ENE visible
11 May 4.2 03:48:29 10° SSE 03:53:16 28° ESE 03:58:42 10° NE visible
12 May 4.6 03:02:24 10° SE 03:05:35 15° ESE 03:09:01 10° ENE visible
13 May 3.1 04:01:13 10° SSW 04:06:47 56° ESE 04:13:24 10° NE visible
14 May 3.9 03:13:53 10° S 03:18:52 32° ESE 03:24:36 10° NE visible
